Powrót do katalogu

COSMOS 970 DEB

AktywnyLEO
NORAD 14442·DEBRIS·🇷🇺 Russia

Wystrzelony Dec 21, 1977 z Baikonur Cosmodrome

Loading…

Następne Przeloty (najbliższe 24 godziny)

TLE

ŚwieżeSource: Space-Track

Epoka: Sep 14, 2026, 09:22 UTC

1 14442U 77121BE  26257.39076093  .00001647  00000-0  14950-2 0  9991
2 14442  65.3661 232.0327 0019733 285.4694 237.6849 13.86270906414172

Śledź COSMOS 970 DEB w czasie rzeczywistym z AllMySat

Download on the App Store